Year,Month,Day,Hour,Minute,Value (Times are PST for temperature in C)
2016,04,22,00,00,12.20
2016,04,22,00,01,12.20
2016,04,22,00,02,12.20
2016,04,22,00,03,12.20
2016,04,22,00,04,12.20
2016,04,22,00,05,12.20
2016,04,22,00,06,12.20
2016,04,22,00,07,12.20
2016,04,22,00,08,12.20
2016,04,22,00,09,12.20
2016,04,22,00,10,12.20
2016,04,22,00,11,12.20
2016,04,22,00,12,12.20
2016,04,22,00,13,12.20
2016,04,22,00,14,12.20
2016,04,22,00,15,12.20
2016,04,22,00,16,12.20
2016,04,22,00,17,12.20
2016,04,22,00,18,12.20
2016,04,22,00,19,12.20
2016,04,22,00,20,12.20
2016,04,22,00,21,12.20
2016,04,22,00,22,12.20
2016,04,22,00,23,12.20
2016,04,22,00,24,12.20
2016,04,22,00,25,12.20
2016,04,22,00,26,12.20
2016,04,22,00,27,12.20
2016,04,22,00,28,12.20
2016,04,22,00,29,12.20
2016,04,22,00,30,12.20
2016,04,22,00,31,12.20
2016,04,22,00,32,12.20
2016,04,22,00,33,12.20
2016,04,22,00,34,12.20
2016,04,22,00,35,12.20
2016,04,22,00,36,12.20
2016,04,22,00,37,12.20
2016,04,22,00,38,12.20
2016,04,22,00,39,12.20
2016,04,22,00,40,12.10
2016,04,22,00,41,12.10
2016,04,22,00,42,12.10
2016,04,22,00,43,12.10
2016,04,22,00,44,12.10
2016,04,22,00,45,12.10
2016,04,22,00,46,12.10
2016,04,22,00,47,12.10
2016,04,22,00,48,12.10
2016,04,22,00,49,12.10
2016,04,22,00,50,12.10
2016,04,22,00,51,12.10
2016,04,22,00,52,12.10
2016,04,22,00,53,12.10
2016,04,22,00,54,12.10
2016,04,22,00,55,12.10
2016,04,22,00,56,12.10
2016,04,22,00,57,12.10
2016,04,22,00,58,12.10
2016,04,22,00,59,12.10
2016,04,22,01,00,12.10
2016,04,22,01,01,12.10
2016,04,22,01,02,12.10
2016,04,22,01,03,12.10
2016,04,22,01,04,12.10
2016,04,22,01,05,12.10
2016,04,22,01,06,12.00
2016,04,22,01,07,12.00
2016,04,22,01,08,12.00
2016,04,22,01,09,11.90
2016,04,22,01,10,11.90
2016,04,22,01,11,11.90
2016,04,22,01,12,11.90
2016,04,22,01,13,11.80
2016,04,22,01,14,11.80
2016,04,22,01,15,11.80
2016,04,22,01,16,11.80
2016,04,22,01,17,11.80
2016,04,22,01,18,11.80
2016,04,22,01,19,11.80
2016,04,22,01,20,11.70
2016,04,22,01,21,11.70
2016,04,22,01,22,11.70
2016,04,22,01,23,11.70
2016,04,22,01,24,11.70
2016,04,22,01,25,11.70
2016,04,22,01,26,11.70
2016,04,22,01,27,11.70
2016,04,22,01,28,11.70
2016,04,22,01,29,11.70
2016,04,22,01,30,11.70
2016,04,22,01,31,11.70
2016,04,22,01,32,11.70
2016,04,22,01,33,11.70
2016,04,22,01,34,11.70
2016,04,22,01,35,11.70
2016,04,22,01,36,11.70
2016,04,22,01,37,11.70
2016,04,22,01,38,11.60
2016,04,22,01,39,11.60
2016,04,22,01,40,11.60
2016,04,22,01,41,11.60
2016,04,22,01,42,11.60
2016,04,22,01,43,11.60
2016,04,22,01,44,11.60
2016,04,22,01,45,11.50
2016,04,22,01,46,11.50
2016,04,22,01,47,11.50
2016,04,22,01,48,11.40
2016,04,22,01,49,11.40
2016,04,22,01,50,11.40
2016,04,22,01,51,11.40
2016,04,22,01,52,11.40
2016,04,22,01,53,11.30
2016,04,22,01,54,11.30
2016,04,22,01,55,11.30
2016,04,22,01,56,11.30
2016,04,22,01,57,11.30
2016,04,22,01,58,11.30
2016,04,22,01,59,11.30
2016,04,22,02,00,11.30
2016,04,22,02,01,11.30
2016,04,22,02,02,11.30
2016,04,22,02,03,11.30
2016,04,22,02,04,11.30
2016,04,22,02,05,11.30
2016,04,22,02,06,11.30
2016,04,22,02,07,11.30
2016,04,22,02,08,11.30
2016,04,22,02,09,11.30
2016,04,22,02,10,11.30
2016,04,22,02,11,11.40
2016,04,22,02,12,11.40
2016,04,22,02,13,11.40
2016,04,22,02,14,11.40
2016,04,22,02,15,11.40
2016,04,22,02,16,11.40
2016,04,22,02,17,11.40
2016,04,22,02,18,11.40
2016,04,22,02,19,11.40
2016,04,22,02,20,11.40
2016,04,22,02,21,11.40
2016,04,22,02,22,11.40
2016,04,22,02,23,11.40
2016,04,22,02,24,11.40
2016,04,22,02,25,11.40
2016,04,22,02,26,11.50
2016,04,22,02,27,11.50
2016,04,22,02,28,11.50
2016,04,22,02,29,11.50
2016,04,22,02,30,11.60
2016,04,22,02,31,11.60
2016,04,22,02,32,11.60
2016,04,22,02,33,11.60
2016,04,22,02,34,11.60
2016,04,22,02,35,11.70
2016,04,22,02,36,11.70
2016,04,22,02,37,11.70
2016,04,22,02,38,11.70
2016,04,22,02,39,11.70
2016,04,22,02,40,11.80
2016,04,22,02,41,11.80
2016,04,22,02,42,11.80
2016,04,22,02,43,11.80
2016,04,22,02,44,11.80
2016,04,22,02,45,11.80
2016,04,22,02,46,11.80
2016,04,22,02,47,11.80
2016,04,22,02,48,11.80
2016,04,22,02,49,11.80
2016,04,22,02,50,11.80
2016,04,22,02,51,11.80
2016,04,22,02,52,11.80
2016,04,22,02,53,11.80
2016,04,22,02,54,11.80
2016,04,22,02,55,11.80
2016,04,22,02,56,11.80
2016,04,22,02,57,11.80
2016,04,22,02,58,11.80
2016,04,22,02,59,11.80
2016,04,22,03,00,11.80
2016,04,22,03,01,11.80
2016,04,22,03,02,11.80
2016,04,22,03,03,11.80
2016,04,22,03,04,11.80
2016,04,22,03,05,11.80
2016,04,22,03,06,11.80
2016,04,22,03,07,11.80
2016,04,22,03,08,11.80
2016,04,22,03,09,11.80
2016,04,22,03,10,11.90
2016,04,22,03,11,11.90
2016,04,22,03,12,11.90
2016,04,22,03,13,11.90
2016,04,22,03,14,11.90
2016,04,22,03,15,11.90
2016,04,22,03,16,11.90
2016,04,22,03,17,12.00
2016,04,22,03,18,12.00
2016,04,22,03,19,12.00
2016,04,22,03,20,12.10
2016,04,22,03,21,12.10
2016,04,22,03,22,12.10
2016,04,22,03,23,12.10
2016,04,22,03,24,12.10
2016,04,22,03,25,12.10
2016,04,22,03,26,12.10
2016,04,22,03,27,12.10
2016,04,22,03,28,12.10
2016,04,22,03,29,12.20
2016,04,22,03,30,12.20
2016,04,22,03,31,12.20
2016,04,22,03,32,12.20
2016,04,22,03,33,12.20
2016,04,22,03,34,12.20
2016,04,22,03,35,12.20
2016,04,22,03,36,12.20
2016,04,22,03,37,12.20
2016,04,22,03,38,12.20
2016,04,22,03,39,12.20
2016,04,22,03,40,12.20
2016,04,22,03,41,12.20
2016,04,22,03,42,12.20
2016,04,22,03,43,12.20
2016,04,22,03,44,12.20
2016,04,22,03,45,12.20
2016,04,22,03,46,12.20
2016,04,22,03,47,12.20
2016,04,22,03,48,12.20
2016,04,22,03,49,12.20
2016,04,22,03,50,12.20
2016,04,22,03,51,12.20
2016,04,22,03,52,12.30
2016,04,22,03,53,12.30
2016,04,22,03,54,12.30
2016,04,22,03,55,12.30
2016,04,22,03,56,12.30
2016,04,22,03,57,12.30
2016,04,22,03,58,12.30
2016,04,22,03,59,12.30
2016,04,22,04,00,12.30
2016,04,22,04,01,12.30
2016,04,22,04,02,12.30
2016,04,22,04,03,12.40
2016,04,22,05,04,13.00
2016,04,22,05,05,13.00
2016,04,22,05,06,13.00
2016,04,22,05,07,13.00
2016,04,22,05,08,13.00
2016,04,22,05,09,13.00
2016,04,22,05,10,13.00
2016,04,22,05,11,13.00
2016,04,22,05,12,13.00
2016,04,22,05,13,13.00
2016,04,22,05,14,13.00
2016,04,22,05,15,13.00
2016,04,22,05,16,13.00
2016,04,22,05,17,13.00
2016,04,22,05,18,13.10
2016,04,22,05,19,13.10
2016,04,22,05,20,13.10
2016,04,22,05,21,13.10
2016,04,22,05,22,13.10
2016,04,22,05,23,13.10
2016,04,22,05,24,13.10
2016,04,22,05,25,13.20
2016,04,22,05,26,13.20
2016,04,22,05,27,13.20
2016,04,22,05,28,13.20
2016,04,22,05,29,13.20
2016,04,22,05,30,13.20
2016,04,22,05,31,13.20
2016,04,22,05,32,13.20
2016,04,22,05,33,13.20
2016,04,22,05,34,13.20
2016,04,22,05,35,13.20
2016,04,22,05,36,13.30
2016,04,22,05,37,13.30
2016,04,22,05,38,13.30
2016,04,22,05,39,13.30
2016,04,22,05,40,13.30
2016,04,22,05,41,13.30
2016,04,22,05,42,13.30
2016,04,22,05,43,13.30
2016,04,22,05,44,13.30
2016,04,22,05,45,13.30
2016,04,22,05,46,13.30
2016,04,22,05,47,13.30
2016,04,22,05,48,13.30
2016,04,22,05,49,13.30
2016,04,22,05,50,13.30
2016,04,22,05,51,13.30
2016,04,22,05,52,13.30
2016,04,22,05,53,13.30
2016,04,22,05,54,13.30
2016,04,22,05,55,13.30
2016,04,22,05,56,13.30
2016,04,22,05,57,13.40
2016,04,22,05,58,13.40
2016,04,22,05,59,13.40
2016,04,22,06,00,13.40
2016,04,22,06,01,13.50
2016,04,22,06,02,13.50
2016,04,22,06,03,13.60
2016,04,22,06,04,13.60
2016,04,22,06,05,13.60
2016,04,22,06,06,13.60
2016,04,22,06,07,13.60
2016,04,22,06,08,13.60
2016,04,22,06,09,13.60
2016,04,22,06,10,13.60
2016,04,22,06,11,13.50
2016,04,22,06,12,13.50
2016,04,22,06,13,13.40
2016,04,22,06,14,13.40
2016,04,22,06,15,13.40
2016,04,22,06,16,13.40
2016,04,22,06,17,13.40
2016,04,22,06,18,13.40
2016,04,22,06,19,13.30
2016,04,22,06,20,13.30
2016,04,22,06,21,13.30
2016,04,22,06,22,13.30
2016,04,22,06,23,13.30
2016,04,22,06,24,13.30
2016,04,22,06,25,13.30
2016,04,22,06,26,13.30
2016,04,22,06,27,13.30
2016,04,22,06,28,13.30
2016,04,22,06,29,13.30
2016,04,22,06,30,13.30
2016,04,22,06,31,13.30
2016,04,22,06,32,13.30
2016,04,22,06,33,13.30
2016,04,22,06,34,13.30
2016,04,22,06,35,13.30
2016,04,22,06,36,13.30
2016,04,22,06,37,13.30
2016,04,22,06,38,13.30
2016,04,22,06,39,13.30
2016,04,22,06,40,13.30
2016,04,22,06,41,13.30
2016,04,22,06,42,13.30
2016,04,22,06,43,13.30
2016,04,22,06,44,13.30
2016,04,22,06,45,13.30
2016,04,22,06,46,13.30
2016,04,22,06,47,13.30
2016,04,22,06,48,13.30
2016,04,22,06,49,13.30
2016,04,22,06,50,13.30
2016,04,22,06,51,13.30
2016,04,22,06,52,13.30
2016,04,22,06,53,13.30
2016,04,22,06,54,13.40
2016,04,22,06,55,13.40
2016,04,22,06,56,13.40
2016,04,22,06,57,13.40
2016,04,22,06,58,13.50
2016,04,22,06,59,13.50
2016,04,22,07,00,13.60
2016,04,22,07,01,13.60
2016,04,22,07,02,13.70
2016,04,22,07,03,13.70
2016,04,22,07,04,13.80
2016,04,22,07,05,13.80
2016,04,22,07,06,13.80
2016,04,22,07,07,13.90
2016,04,22,07,08,13.90
2016,04,22,07,09,13.90
2016,04,22,07,10,14.00
2016,04,22,07,11,14.00
2016,04,22,07,12,14.00
2016,04,22,07,13,14.00
2016,04,22,07,14,14.10
2016,04,22,07,15,14.10
2016,04,22,07,16,14.10
2016,04,22,07,17,14.10
2016,04,22,07,18,14.10
2016,04,22,07,19,14.10
2016,04,22,07,20,14.10
2016,04,22,07,21,14.10
2016,04,22,07,22,14.10
2016,04,22,07,23,14.00
2016,04,22,07,24,14.00
2016,04,22,07,25,14.00
2016,04,22,07,26,13.90
2016,04,22,07,27,13.90
2016,04,22,07,28,13.90
2016,04,22,07,29,13.90
2016,04,22,07,30,13.90
2016,04,22,07,31,13.80
2016,04,22,07,32,13.80
2016,04,22,07,33,13.80
2016,04,22,07,34,13.80
2016,04,22,07,35,13.70
2016,04,22,07,36,13.70
2016,04,22,07,37,13.70
2016,04,22,07,38,13.60
2016,04,22,07,39,13.50
2016,04,22,07,40,13.50
2016,04,22,07,41,13.40
2016,04,22,07,42,13.40
2016,04,22,07,43,13.40
2016,04,22,07,44,13.30
2016,04,22,07,45,13.30
2016,04,22,07,46,13.30
2016,04,22,07,47,13.30
2016,04,22,07,48,13.30
2016,04,22,07,49,13.30
2016,04,22,07,50,13.30
2016,04,22,07,51,13.30
2016,04,22,07,52,13.30
2016,04,22,07,53,13.30
2016,04,22,07,54,13.30
2016,04,22,07,55,13.30
2016,04,22,07,56,13.30
2016,04,22,07,57,13.40
2016,04,22,07,58,13.40
2016,04,22,07,59,13.40
2016,04,22,08,00,13.40
2016,04,22,08,01,13.40
2016,04,22,08,02,13.40
2016,04,22,08,03,13.40
2016,04,22,08,04,13.40
2016,04,22,08,05,13.40
2016,04,22,08,06,13.40
2016,04,22,08,07,13.40
2016,04,22,08,08,13.40
2016,04,22,08,09,13.40
2016,04,22,08,10,13.40
2016,04,22,08,11,13.40
2016,04,22,08,12,13.40
2016,04,22,08,13,13.40
2016,04,22,08,14,13.40
2016,04,22,08,15,13.30
2016,04,22,08,16,13.30
2016,04,22,08,17,13.30
2016,04,22,08,18,13.30
2016,04,22,08,19,13.30
2016,04,22,08,20,13.30
2016,04,22,08,21,13.20
2016,04,22,08,22,13.20
2016,04,22,08,23,13.20
2016,04,22,08,24,13.20
2016,04,22,08,25,13.20
2016,04,22,08,26,13.20
2016,04,22,08,27,13.10
2016,04,22,08,28,13.10
2016,04,22,08,29,13.10
2016,04,22,08,30,13.10
2016,04,22,08,31,13.10
2016,04,22,08,32,13.10
2016,04,22,08,33,13.00
2016,04,22,08,34,13.00
2016,04,22,08,35,13.00
2016,04,22,08,36,13.00
2016,04,22,08,37,13.00
2016,04,22,08,38,13.10
2016,04,22,08,39,13.10
2016,04,22,08,40,13.10
2016,04,22,08,41,13.10
2016,04,22,08,42,13.10
2016,04,22,08,43,13.10
2016,04,22,08,44,13.20
2016,04,22,08,45,13.20
2016,04,22,08,46,13.20
2016,04,22,08,47,13.20
2016,04,22,08,48,13.20
2016,04,22,08,49,13.10
2016,04,22,08,50,13.10
2016,04,22,08,51,13.10
2016,04,22,08,52,13.20
2016,04,22,08,53,13.20
2016,04,22,08,54,13.20
2016,04,22,08,55,13.20
2016,04,22,08,56,13.20
2016,04,22,08,57,13.30
2016,04,22,08,58,13.30
2016,04,22,08,59,13.40
2016,04,22,09,00,13.50
2016,04,22,09,01,13.50
2016,04,22,09,02,13.60
2016,04,22,09,03,13.60
2016,04,22,09,04,13.70
2016,04,22,09,05,13.70
2016,04,22,09,06,13.70
2016,04,22,09,07,13.70
2016,04,22,09,08,13.70
2016,04,22,09,09,13.70
2016,04,22,09,10,13.70
2016,04,22,09,11,13.70
2016,04,22,09,12,13.70
2016,04,22,09,13,13.70
2016,04,22,09,14,13.70
2016,04,22,09,15,13.70
2016,04,22,09,16,13.70
2016,04,22,09,17,13.70
2016,04,22,09,18,13.70
2016,04,22,09,19,13.70
2016,04,22,09,20,13.80
2016,04,22,09,21,13.80
2016,04,22,09,22,13.80
2016,04,22,09,23,13.70
2016,04,22,09,24,13.70
2016,04,22,09,25,13.60
2016,04,22,09,26,13.60
2016,04,22,09,27,13.50
2016,04,22,09,28,13.40
2016,04,22,09,29,13.40
2016,04,22,09,30,13.30
2016,04,22,09,31,13.20
2016,04,22,09,32,13.10
2016,04,22,09,33,13.00
2016,04,22,09,34,12.90
2016,04,22,09,35,12.80
2016,04,22,09,36,12.80
2016,04,22,09,37,12.80
2016,04,22,09,38,12.70
2016,04,22,09,39,12.70
2016,04,22,09,40,12.70
2016,04,22,09,41,12.70
2016,04,22,09,42,12.70
2016,04,22,09,43,12.70
2016,04,22,09,44,12.70
2016,04,22,09,45,12.70
2016,04,22,09,46,12.70
2016,04,22,09,47,12.80
2016,04,22,09,48,12.80
2016,04,22,09,49,12.80
2016,04,22,09,50,12.90
2016,04,22,09,51,12.90
2016,04,22,09,52,13.00
2016,04,22,09,53,13.00
2016,04,22,09,54,13.10
2016,04,22,09,55,13.10
2016,04,22,09,56,13.10
2016,04,22,09,57,13.10
2016,04,22,09,58,13.10
2016,04,22,09,59,13.10
2016,04,22,10,00,13.10
2016,04,22,10,01,13.20
2016,04,22,10,02,13.20
2016,04,22,10,03,13.20
2016,04,22,10,04,13.30
2016,04,22,10,05,13.30
2016,04,22,10,06,13.30
2016,04,22,10,07,13.40
2016,04,22,10,08,13.40
2016,04,22,10,09,13.50
2016,04,22,10,10,13.60
2016,04,22,10,11,13.60
2016,04,22,10,12,13.70
2016,04,22,10,13,13.70
2016,04,22,10,14,13.80
2016,04,22,10,15,13.80
2016,04,22,10,16,13.80
2016,04,22,10,17,13.90
2016,04,22,10,18,13.90
2016,04,22,10,19,14.00
2016,04,22,10,20,14.10
2016,04,22,10,21,14.10
2016,04,22,10,22,14.20
2016,04,22,10,23,14.30
2016,04,22,10,24,14.40
2016,04,22,10,25,14.40
2016,04,22,10,26,14.40
2016,04,22,10,27,14.50
2016,04,22,10,28,14.60
2016,04,22,10,29,14.70
2016,04,22,10,30,14.70
2016,04,22,10,31,14.80
2016,04,22,10,32,14.80
2016,04,22,10,33,14.80
2016,04,22,10,34,14.90
2016,04,22,10,35,14.90
2016,04,22,10,36,15.00
2016,04,22,10,37,15.00
2016,04,22,10,38,15.10
2016,04,22,10,39,15.10
2016,04,22,10,40,15.20
2016,04,22,10,41,15.20
2016,04,22,10,42,15.20
2016,04,22,10,43,15.30
2016,04,22,10,44,15.30
2016,04,22,10,45,15.40
2016,04,22,10,46,15.40
2016,04,22,10,47,15.40
2016,04,22,10,48,15.40
2016,04,22,10,49,15.50
2016,04,22,10,50,15.50
2016,04,22,10,51,15.50
2016,04,22,10,52,15.50
2016,04,22,10,53,15.50
2016,04,22,10,54,15.50
2016,04,22,10,55,15.60
2016,04,22,10,56,15.60
2016,04,22,10,57,15.60
2016,04,22,10,58,15.60
2016,04,22,10,59,15.70
2016,04,22,11,00,15.70
2016,04,22,11,01,15.70
2016,04,22,11,02,15.70
2016,04,22,11,03,15.70
2016,04,22,11,04,15.70
2016,04,22,11,05,15.80
2016,04,22,11,06,15.80
2016,04,22,11,07,15.80
2016,04,22,11,08,15.80
2016,04,22,11,09,15.80
2016,04,22,11,10,15.80
2016,04,22,11,11,15.80
2016,04,22,11,12,15.80
2016,04,22,11,13,15.80
2016,04,22,11,14,15.80
2016,04,22,11,15,15.90
2016,04,22,11,16,15.90
2016,04,22,11,17,15.90
2016,04,22,11,18,15.90
2016,04,22,11,19,16.00
2016,04,22,11,20,16.00
2016,04,22,11,21,16.10
2016,04,22,11,22,16.10
2016,04,22,11,23,16.20
2016,04,22,11,24,16.20
2016,04,22,11,25,16.30
2016,04,22,11,26,16.30
2016,04,22,11,27,16.40
2016,04,22,11,28,16.40
2016,04,22,11,29,16.50
2016,04,22,11,30,16.50
2016,04,22,11,31,16.60
2016,04,22,11,32,16.60
2016,04,22,11,33,16.60
2016,04,22,11,34,16.60
2016,04,22,11,35,16.60
2016,04,22,11,36,16.60
2016,04,22,11,37,16.60
2016,04,22,11,38,16.60
2016,04,22,11,39,16.60
2016,04,22,11,40,16.60
2016,04,22,11,41,16.70
2016,04,22,11,42,16.70
2016,04,22,11,43,16.70
2016,04,22,11,44,16.60
2016,04,22,11,45,16.50
2016,04,22,11,46,16.40
2016,04,22,11,47,16.40
2016,04,22,11,48,16.40
2016,04,22,11,49,16.40
2016,04,22,11,50,16.40
2016,04,22,11,51,16.40
2016,04,22,11,52,16.40
2016,04,22,11,53,16.50
2016,04,22,11,54,16.50
2016,04,22,11,55,16.50
2016,04,22,11,56,16.60
2016,04,22,11,57,16.60
2016,04,22,11,58,16.70
2016,04,22,11,59,16.70
2016,04,22,12,00,16.80
2016,04,22,12,01,16.80
2016,04,22,12,02,16.80
2016,04,22,12,03,16.80
2016,04,22,12,04,16.80
2016,04,22,12,05,16.90
2016,04,22,12,06,16.90
2016,04,22,12,07,17.00
2016,04,22,12,08,17.00
2016,04,22,12,09,17.10
2016,04,22,12,10,17.10
2016,04,22,12,11,17.20
2016,04,22,12,12,17.30
2016,04,22,12,13,17.30
2016,04,22,12,14,17.30
2016,04,22,12,15,17.30
2016,04,22,12,16,17.30
2016,04,22,12,17,17.40
2016,04,22,12,18,17.50
2016,04,22,12,19,17.60
2016,04,22,12,20,17.60
2016,04,22,12,21,17.60
2016,04,22,12,22,17.70
2016,04,22,12,23,17.70
2016,04,22,12,24,17.70
2016,04,22,12,25,17.70
2016,04,22,12,26,17.70
2016,04,22,12,27,17.70
2016,04,22,12,28,17.80
2016,04,22,12,29,17.80
2016,04,22,12,30,17.80
2016,04,22,12,31,17.80
2016,04,22,12,32,17.80
2016,04,22,12,33,17.70
2016,04,22,12,34,17.70
2016,04,22,12,35,17.70
2016,04,22,12,36,17.80
2016,04,22,12,37,17.80
2016,04,22,12,38,17.80
2016,04,22,12,39,17.80
2016,04,22,12,40,17.80
2016,04,22,12,41,17.90
2016,04,22,12,42,17.90
2016,04,22,12,43,17.90
2016,04,22,12,44,18.00
2016,04,22,12,45,18.10
2016,04,22,12,46,18.20
2016,04,22,12,47,18.20
2016,04,22,12,48,18.20
2016,04,22,12,49,18.20
2016,04,22,12,50,18.20
2016,04,22,12,51,18.10
2016,04,22,12,52,18.00
2016,04,22,12,53,17.90
2016,04,22,12,54,17.90
2016,04,22,12,55,17.80
2016,04,22,12,56,17.80
2016,04,22,12,57,17.70
2016,04,22,12,58,17.70
2016,04,22,12,59,17.60
2016,04,22,13,00,17.60
2016,04,22,13,01,17.60
2016,04,22,13,02,17.50
2016,04,22,13,03,17.50
2016,04,22,13,04,17.50
2016,04,22,13,05,17.50
2016,04,22,13,06,17.40
2016,04,22,13,07,17.40
2016,04,22,13,08,17.30
2016,04,22,13,09,17.30
2016,04,22,13,10,17.30
2016,04,22,13,11,17.30
2016,04,22,13,12,17.40
2016,04,22,13,13,17.40
2016,04,22,13,14,17.50
2016,04,22,13,15,17.50
2016,04,22,13,16,17.40
2016,04,22,13,17,17.40
2016,04,22,13,18,17.40
2016,04,22,13,19,17.40
2016,04,22,13,20,17.40
2016,04,22,13,21,17.40
2016,04,22,13,22,17.40
2016,04,22,13,23,17.30
2016,04,22,13,24,17.30
2016,04,22,13,25,17.30
2016,04,22,13,26,17.30
2016,04,22,13,27,17.30
2016,04,22,13,28,17.30
2016,04,22,13,29,17.30
2016,04,22,13,30,17.20
2016,04,22,13,31,17.30
2016,04,22,13,32,17.30
2016,04,22,13,33,17.30
2016,04,22,13,34,17.30
2016,04,22,13,35,17.40
2016,04,22,13,36,17.40
2016,04,22,13,37,17.50
2016,04,22,13,38,17.60
2016,04,22,13,39,17.70
2016,04,22,13,40,17.70
2016,04,22,13,41,17.70
2016,04,22,13,42,17.80
2016,04,22,13,43,17.80
2016,04,22,13,44,17.90
2016,04,22,13,45,18.00
2016,04,22,13,46,18.10
2016,04,22,13,47,18.20
2016,04,22,13,48,18.30
2016,04,22,13,49,18.30
2016,04,22,13,50,18.30
2016,04,22,13,51,18.30
2016,04,22,13,52,18.30
2016,04,22,13,53,18.40
2016,04,22,13,54,18.50
2016,04,22,13,55,18.50
2016,04,22,13,56,18.60
2016,04,22,13,57,18.60
2016,04,22,13,58,18.60
2016,04,22,13,59,18.60
2016,04,22,14,00,18.60
2016,04,22,14,01,18.50
2016,04,22,14,02,18.50
2016,04,22,14,03,18.60
2016,04,22,14,04,18.60
2016,04,22,14,05,18.70
2016,04,22,14,06,18.70
2016,04,22,14,07,18.80
2016,04,22,14,08,18.80
2016,04,22,14,09,18.80
2016,04,22,14,10,18.70
2016,04,22,14,11,18.70
2016,04,22,14,12,18.60
2016,04,22,14,13,18.60
2016,04,22,14,14,18.60
2016,04,22,14,15,18.60
2016,04,22,14,16,18.60
2016,04,22,14,17,18.60
2016,04,22,14,18,18.60
2016,04,22,14,19,18.50
2016,04,22,14,20,18.40
2016,04,22,14,21,18.30
2016,04,22,14,22,18.20
2016,04,22,14,23,18.20
2016,04,22,14,24,18.20
2016,04,22,14,25,18.20
2016,04,22,14,26,18.20
2016,04,22,14,27,18.30
2016,04,22,14,28,18.30
2016,04,22,14,29,18.40
2016,04,22,14,30,18.40
2016,04,22,14,31,18.30
2016,04,22,14,32,18.20
2016,04,22,14,33,18.20
2016,04,22,14,34,18.20
2016,04,22,14,35,18.10
2016,04,22,14,36,18.10
2016,04,22,14,37,18.10
2016,04,22,14,38,18.10
2016,04,22,14,39,18.10
2016,04,22,14,40,18.10
2016,04,22,14,41,18.00
2016,04,22,14,42,18.00
2016,04,22,14,43,18.00
2016,04,22,14,44,18.00
2016,04,22,14,45,18.00
2016,04,22,14,46,18.00
2016,04,22,14,47,17.90
2016,04,22,14,48,17.80
2016,04,22,14,49,17.80
2016,04,22,14,50,17.80
2016,04,22,14,51,17.70
2016,04,22,14,52,17.60
2016,04,22,14,53,17.50
2016,04,22,14,54,17.40
2016,04,22,14,55,17.30
2016,04,22,14,56,17.30
2016,04,22,14,57,17.20
2016,04,22,14,58,17.10
2016,04,22,14,59,17.10
2016,04,22,15,00,17.00
2016,04,22,15,01,17.00
2016,04,22,15,02,17.00
2016,04,22,15,03,17.00
2016,04,22,15,04,17.00
2016,04,22,15,05,16.90
2016,04,22,15,06,16.80
2016,04,22,15,07,16.80
2016,04,22,15,08,16.80
2016,04,22,15,09,16.70
2016,04,22,15,10,16.70
2016,04,22,15,11,16.60
2016,04,22,15,12,16.60
2016,04,22,15,13,16.60
2016,04,22,15,14,16.60
2016,04,22,15,15,16.50
2016,04,22,15,16,16.40
2016,04,22,15,17,16.40
2016,04,22,15,18,16.40
2016,04,22,15,19,16.30
2016,04,22,15,20,16.30
2016,04,22,15,21,16.30
2016,04,22,15,22,16.30
2016,04,22,15,23,16.30
2016,04,22,15,24,16.30
2016,04,22,15,25,16.30
2016,04,22,15,26,16.30
2016,04,22,15,27,16.30
2016,04,22,15,28,16.30
2016,04,22,15,29,16.30
2016,04,22,15,30,16.30
2016,04,22,15,31,16.30
2016,04,22,15,32,16.30
2016,04,22,15,33,16.30
2016,04,22,15,34,16.30
2016,04,22,15,35,16.30
2016,04,22,15,36,16.40
2016,04,22,15,37,16.40
2016,04,22,15,38,16.30
2016,04,22,15,39,16.30
2016,04,22,15,40,16.30
2016,04,22,15,41,16.30
2016,04,22,15,42,16.30
2016,04,22,15,43,16.30
2016,04,22,15,44,16.20
2016,04,22,15,45,16.30
2016,04,22,15,46,16.20
2016,04,22,15,47,16.20
2016,04,22,15,48,16.20
2016,04,22,15,49,16.20
2016,04,22,15,50,16.10
2016,04,22,15,51,16.00
2016,04,22,15,52,16.00
2016,04,22,15,53,15.90
2016,04,22,15,54,15.90
2016,04,22,15,55,15.90
2016,04,22,15,56,15.80
2016,04,22,15,57,15.80
2016,04,22,15,58,15.80
2016,04,22,15,59,15.80
2016,04,22,16,00,15.70
2016,04,22,16,01,15.70
2016,04,22,16,02,15.70
2016,04,22,16,03,15.70
2016,04,22,16,04,15.60
2016,04,22,16,05,15.60
2016,04,22,16,06,15.60
2016,04,22,16,07,15.60
2016,04,22,16,08,15.60
2016,04,22,16,09,15.60
2016,04,22,17,04,13.80
2016,04,22,17,05,13.80
2016,04,22,17,06,13.70
2016,04,22,17,07,13.70
2016,04,22,17,08,13.70
2016,04,22,17,09,13.70
2016,04,22,17,10,13.70
2016,04,22,17,11,13.70
2016,04,22,17,12,13.70
2016,04,22,17,13,13.70
2016,04,22,17,14,13.70
2016,04,22,17,15,13.70
2016,04,22,17,16,13.70
2016,04,22,17,17,13.70
2016,04,22,17,18,13.70
2016,04,22,17,19,13.70
2016,04,22,17,20,13.70
2016,04,22,17,21,13.70
2016,04,22,17,22,13.70
2016,04,22,17,23,13.70
2016,04,22,17,24,13.70
2016,04,22,17,25,13.70
2016,04,22,17,26,13.70
2016,04,22,17,27,13.70
2016,04,22,17,28,13.70
2016,04,22,17,29,13.80
2016,04,22,17,30,13.80
2016,04,22,17,31,13.80
2016,04,22,17,32,13.80
2016,04,22,17,33,13.80
2016,04,22,17,34,13.80
2016,04,22,17,35,13.90
2016,04,22,17,36,13.90
2016,04,22,17,37,13.90
2016,04,22,17,38,13.90
2016,04,22,17,39,14.00
2016,04,22,17,40,14.00
2016,04,22,17,41,14.00
2016,04,22,17,42,14.00
2016,04,22,17,43,14.10
2016,04,22,17,44,14.10
2016,04,22,17,45,14.10
2016,04,22,17,46,14.10
2016,04,22,17,47,14.10
2016,04,22,17,48,14.10
2016,04,22,17,49,14.20
2016,04,22,17,50,14.20
2016,04,22,17,51,14.20
2016,04,22,17,52,14.20
2016,04,22,17,53,14.20
2016,04,22,17,54,14.20
2016,04,22,17,55,14.20
2016,04,22,17,56,14.20
2016,04,22,17,57,14.20
2016,04,22,17,58,14.30
2016,04,22,17,59,14.20
2016,04,22,18,00,14.30
2016,04,22,18,01,14.30
2016,04,22,18,02,14.30
2016,04,22,18,03,14.30
2016,04,22,18,04,14.30
2016,04,22,18,05,14.30
2016,04,22,18,06,14.30
2016,04,22,18,07,14.30
2016,04,22,18,08,14.30
2016,04,22,18,09,14.30
2016,04,22,18,10,14.30
2016,04,22,18,11,14.30
2016,04,22,18,12,14.30
2016,04,22,18,13,14.30
2016,04,22,18,14,14.30
2016,04,22,18,15,14.30
2016,04,22,18,16,14.30
2016,04,22,18,17,14.30
2016,04,22,18,18,14.30
2016,04,22,18,19,14.30
2016,04,22,18,20,14.30
2016,04,22,18,21,14.30
2016,04,22,18,22,14.30
2016,04,22,18,23,14.30
2016,04,22,18,24,14.30
2016,04,22,18,25,14.30
2016,04,22,18,26,14.30
2016,04,22,18,27,14.30
2016,04,22,18,28,14.30
2016,04,22,18,29,14.30
2016,04,22,18,30,14.30
2016,04,22,18,31,14.40
2016,04,22,18,32,14.40
2016,04,22,18,33,14.40
2016,04,22,18,34,14.40
2016,04,22,18,35,14.40
2016,04,22,18,36,14.40
2016,04,22,18,37,14.40
2016,04,22,18,38,14.40
2016,04,22,18,39,14.40
2016,04,22,18,40,14.50
2016,04,22,18,41,14.50
2016,04,22,18,42,14.50
2016,04,22,18,43,14.50
2016,04,22,18,44,14.50
2016,04,22,18,45,14.50
2016,04,22,18,46,14.50
2016,04,22,18,47,14.50
2016,04,22,18,48,14.50
2016,04,22,18,49,14.50
2016,04,22,18,50,14.50
2016,04,22,18,51,14.50
2016,04,22,18,52,14.50
2016,04,22,18,53,14.50
2016,04,22,18,54,14.50
2016,04,22,18,55,14.50
2016,04,22,18,56,14.50
2016,04,22,18,57,14.50
2016,04,22,18,58,14.50
2016,04,22,18,59,14.50
2016,04,22,19,00,14.50
2016,04,22,19,01,14.50
2016,04,22,19,02,14.40
2016,04,22,19,03,14.40
2016,04,22,19,04,14.40
2016,04,22,19,05,14.40
2016,04,22,19,06,14.40
2016,04,22,19,07,14.40
2016,04,22,19,08,14.40
2016,04,22,19,09,14.40
2016,04,22,19,10,14.50
2016,04,22,19,11,14.40
2016,04,22,19,12,14.40
2016,04,22,19,13,14.50